Location: Newark
(50.4348°N, 30.5552°E)
Time: 11:33:55
(UTC+00:00)

Tiros 1 despin weight - Pass Details

Date: 28 January 2020
Orbit: 594 x 642 km, 48.2° (Epoch: 22 February)

Event Time Altitude Azimuth Distance (km) Brightness Sun altitude
Rises 08:50:21 0° 232° (SW) 2,849 ? 19.0°
Reaches altitude 10° 08:52:44 10° 224° (SW) 1,955 ? 19.2°
Maximum altitude 08:56:54 39° 156° (SSE) 931 ? 19.4°
Drops below altitude 10° 09:01:09 10° 88° (E) 1,990 ? 19.6°
Sets 09:03:35 0° 81° (E) 2,907 ? 19.7°
